IUS DEB, 43361

Orbit data source: Space-Track

IUS DEB, 43361 is space debris in HEO originally from a launch on Fri, 23 Jul 1999 UTC launched from the Air Force Eastern Test Range (AFETR). Debris objects in space refer to the collection of defunct objects orbiting the Earth. Examples of debris include non-operational satellites, rocket bodies, and fragments generated from explosions, collisions, or faulty payload assembly.

Loading next visibility...
IUS DEB details
Identifier
43361, 1999-040J
Orbit
HEO
Last TLE update1 month ago
Origin
Flag of USGSFC (US)
ManufacturerBoeing/Kent
MissionSpacecraft
Bus & MotorUnknown
MassUnknown
Launch date (UTC)
1999-07-23 (25 years ago)
Launch vehicleUnknown
Launch site
Air Force Eastern Test Range (AFETR)
Object type
Payload
Rocket body
Debris
Shape & HBRUnknown
Radar Cross SectionSmall (<0.1 m²)

Expand to show TLE details & history

TLE from 1 month ago
0 IUS DEB
1 43361U 99040J   24304.49170300 -.00001524  00000-0 -28339-1 0  9996
2 43361  27.9064 299.3856 3429399 233.4711  89.8991  7.21464974240351
Epoch: 2024-10-30T11:48Z
Definitive object data (Epoch: 2024-10-30T11:48:03.139Z)
Latitude0.00001°
Longitude83.08411°
Altitude6,166.353 km
Speed5.322 km/s
True Right ascension19h 57m 32s
True Declination0° 00' 00"
Sunlit
Object was in daylight at TLE epoch
Visualization TLE readout
Latitude27.31546°
Longitude106.29663°
Altitude5,448.433 km
Speed5.675 km/s
Apparent Right ascension21h 01m 01s
Apparent Declination5° 03' 15"
Sunlit
Object is in daylight
Visualization observer readout
Local Sidereal Time07:57:21
Azimuth338.179° N
Elevation-42.702°
Doppler factor1
Orbital elements
Apogee altitude8,819.273 km
Perigee altitude1,057.499 km
Semi-major axis11,316.523 km
Eccentricity0.3429399
Inclination27.9064°
RAAN299.3856°
Arg. of periapsis233.4711°
True anomaly126.5697°
Mean anomaly89.8991°
Eccentric anomaly108.52951°
Mean motion1.80291 °/min
BSTAR-0.028339
Orbital period199.68 mins
Loading maneuver chart data...
Loading historical data...
Loading historical data...
Loading historical data...
Loading historical data...
Loading historical data...
Loading historical data...
Loading historical data...

IUS DEB Visibility forecast

Observer location: undefined°, undefined

Span
Click to sort rows by Start time (UTC) header in descending order
Start Az.
Max El. time (UTC)
Max El. Az.
Max El.
End time (UTC)
End Az.
29 mins2024-12-04 19:34:58.581Z177.362° S2024-12-04 19:43:58.581Z131.137° SE22.896°2024-12-04 20:03:58.581Z86.539° E
77 mins2024-12-04 23:01:58.581Z240.331° WSW2024-12-04 23:20:58.581Z167.679° S41.669°2024-12-05 00:18:58.581Z97.774° ESE
99 mins2024-12-05 02:37:58.581Z268.81° W2024-12-05 03:16:58.581Z202.052° SSW40.744°2024-12-05 04:16:58.581Z134.538° SE
78 mins2024-12-05 06:30:58.581Z273.002° WNW2024-12-05 07:12:58.581Z232.898° WSW23.666°2024-12-05 07:48:58.581Z186.382° SSW
|